GW6794 Weather Reports


time (UTC)temp
F
wind
direction
speed
knots
gust
knots
rain 1hr
in
rain 24hr
in
rain mn
in
humidity
%
barometer
mb
20260502170509 69 281 7.0 13.0 0.00 0.00 0.00 31 1011.5
20260502164011 67 259 3.5 10.4 0.00 0.00 0.00 36 1011.9
20260502163509 65 223 3.5 10.4 0.00 0.00 0.00 37 1011.9
20260502163032 65 282 3.5 7.8 0.00 0.00 0.00 39 1012.0
20260502162504 65 260 4.3 8.7 0.00 0.00 0.00 38 1012.1
20260502162008 63 222 2.6 8.7 0.00 0.00 0.00 40 1012.3
20260502161516 63 260 4.3 8.7 0.00 0.00 0.00 40 1012.4
20260502161007 62 277 5.2 10.4 0.00 0.00 0.00 41 1012.5
20260502160508 62 275 5.2 10.4 0.00 0.00 0.00 39 1012.7
20260502152007 57 227 6.1 8.7 0.00 0.00 0.00 45 1013.3
20260502151514 57 251 4.3 8.7 0.00 0.00 0.00 45 1013.4
20260502151006 56 239 6.1 8.7 0.00 0.00 0.00 45 1013.5
20260502150508 56 250 4.3 9.6 0.00 0.00 0.00 47 1013.6
20260502130505 42 215 3.5 7.8 0.00 0.00 0.00 66 1015.0
20260502123512 38 186 2.6 5.2 0.00 0.00 0.00 70 1015.3
20260502123028 38 185 3.5 5.2 0.00 0.00 0.00 70 1015.3
20260502122512 37 187 2.6 5.2 0.00 0.00 0.00 70 1015.3
20260502122011 37 191 2.6 5.2 0.00 0.00 0.00 70 1015.4
20260502121526 37 187 3.5 5.2 0.00 0.00 0.00 70 1015.4
20260502121004 37 193 1.7 4.3 0.00 0.00 0.00 70 1015.5
20260502120506 37 174 3.5 4.3 0.00 0.00 0.00 70 1015.5
20260502115504 36 191 1.7 6.1 0.00 0.00 0.00 70 1015.6
20260502115007 36 169 2.6 6.1 0.00 0.00 0.00 70 1015.7
20260502114527 36 191 2.6 5.2 0.00 0.00 0.00 70 1015.7
20260502114005 36 204 2.6 5.2 0.00 0.00 0.00 70 1015.7
20260502113507 36 189 2.6 6.1 0.00 0.00 0.00 70 1015.7
20260502113025 36 196 3.5 6.1 0.00 0.00 0.00 70 1015.7
20260502112507 36 187 2.6 5.2 0.00 0.00 0.00 70 1015.8
20260502112009 36 186 2.6 5.2 0.00 0.00 0.00 70 1015.8
20260502111526 36 198 2.6 4.3 0.00 0.00 0.00 70 1015.8
20260502111011 36 187 0.9 5.2 0.00 0.00 0.00 70 1015.9
20260502110510 36 174 2.6 5.2 0.00 0.00 0.00 69 1015.9
20260502110016 36 196 3.5 5.2 0.00 0.00 0.00 69 1015.9
20260502105507 36 181 2.6 5.2 0.00 0.00 0.00 69 1015.9
20260502105004 36 178 2.6 5.2 0.00 0.00 0.00 68 1016.1
20260502104521 36 177 2.6 4.3 0.00 0.00 0.00 68 1016.1
20260502104005 36 182 2.6 3.5 0.00 0.00 0.00 68 1016.1
20260502103512 36 169 1.7 3.5 0.00 0.00 0.00 68 1016.2
20260502103022 36 180 1.7 3.5 0.00 0.00 0.00 68 1016.2
20260502102507 36 179 0.9 3.5 0.00 0.00 0.00 67 1016.3
20260502102008 36 194 1.7 3.5 0.00 0.00 0.00 67 1016.4
20260502101526 36 185 1.7 4.3 0.00 0.00 0.00 67 1016.5
20260502101011 36 192 2.6 3.5 0.00 0.00 0.00 67 1016.6
20260502100511 36 194 1.7 3.5 0.00 0.00 0.00 66 1016.7
20260502091524 36 171 1.7 2.6 0.00 0.00 0.00 64 1017.1
20260502091010 36 175 0.9 3.5 0.00 0.00 0.00 64 1017.2
20260502090507 36 185 0.9 3.5 0.00 0.00 0.00 63 1017.1
20260502071520 37 210 0.0 0.0 0.00 0.00 0.00 56 1018.0
20260502071006 37 210 0.0 0.0 0.00 0.00 0.00 56 1018.0
20260502070506 37 210 0.0 0.0 0.00 0.00 0.00 56 1018.1
20260502070024 37 210 0.0 0.0 0.00 0.00 0.00 57 1018.2
20260502065507 37 210 0.0 0.0 0.00 0.00 0.00 57 1018.3
20260502065008 37 210 0.0 0.0 0.00 0.00 0.00 55 1018.3
20260502064540 37 210 0.0 0.0 0.00 0.00 0.00 55 1018.3
20260502064012 38 203 0.0 0.0 0.00 0.00 0.00 54 1018.3
20260502063510 38 203 0.0 0.0 0.00 0.00 0.00 53 1018.4
20260502063026 39 203 0.0 0.0 0.00 0.00 0.00 53 1018.4
20260502062509 39 203 0.0 0.0 0.00 0.00 0.00 52 1018.5
20260502062013 39 203 0.0 0.0 0.00 0.00 0.00 52 1018.5
20260502061527 40 203 0.0 0.0 0.00 0.00 0.00 51 1018.4
20260502061006 40 202 0.0 0.0 0.00 0.00 0.00 51 1018.4
20260502060507 40 202 0.0 0.9 0.00 0.00 0.00 51 1018.4
20260502060031 40 202 0.0 1.7 0.00 0.00 0.00 52 1018.5
20260502055507 40 193 0.9 1.7 0.00 0.00 0.00 51 1018.5
20260502055009 39 189 0.9 1.7 0.00 0.00 0.00 53 1018.5
20260502054526 39 183 0.0 0.0 0.00 0.00 0.00 54 1018.5
20260502054007 40 184 0.0 0.0 0.00 0.00 0.00 55 1018.5
20260502053511 39 182 0.0 0.0 0.00 0.00 0.00 54 1018.5
20260502053025 39 185 0.0 0.0 0.00 0.00 0.00 55 1018.5
20260502052510 39 198 0.0 0.0 0.00 0.00 0.00 57 1018.6
20260502052009 39 144 0.0 0.0 0.00 0.00 0.00 57 1018.5
20260502051532 39 143 0.0 0.0 0.00 0.00 0.00 56 1018.5
20260502051011 39 143 0.0 0.0 0.00 0.00 0.00 56 1018.5
20260502050511 39 143 0.0 0.0 0.00 0.00 0.00 56 1018.6
20260502050022 39 143 0.0 0.0 0.00 0.00 0.00 55 1018.6
20260502045508 40 143 0.0 0.0 0.00 0.00 0.00 55 1018.6
20260502045006 40 143 0.0 0.0 0.00 0.00 0.00 56 1018.6
20260502044522 40 143 0.0 0.0 0.00 0.00 0.00 55 1018.6
20260502044006 40 102 0.0 0.0 0.00 0.00 0.00 54 1018.7
20260502043503 41 102 0.0 0.0 0.00 0.00 0.00 54 1018.7
20260502043005 41 102 0.0 0.0 0.00 0.00 0.00 54 1018.6
20260502042506 41 102 0.0 0.0 0.00 0.00 0.00 52 1018.7
20260502042005 41 102 0.0 0.0 0.00 0.00 0.00 53 1018.8
20260502041512 41 102 0.0 0.0 0.00 0.00 0.00 52 1018.8
20260502041005 41 60 0.0 0.0 0.00 0.00 0.00 51 1018.8
20260502040506 41 60 0.0 0.0 0.00 0.00 0.00 51 1018.8
20260502040022 42 60 0.0 0.0 0.00 0.00 0.00 52 1018.7
20260502035511 42 60 0.0 0.0 0.00 0.00 0.00 52 1018.8
20260502035007 42 55 0.0 0.0 0.00 0.00 0.00 55 1018.8
20260502034522 42 55 0.0 0.0 0.00 0.00 0.00 47 1018.8
20260502034008 43 55 0.0 0.0 0.00 0.00 0.00 48 1018.8
20260502033508 43 55 0.0 0.0 0.00 0.00 0.00 48 1018.8
20260502033005 43 55 0.0 0.0 0.00 0.00 0.00 47 1018.7
20260502032503 43 55 0.0 0.0 0.00 0.00 0.00 46 1018.7
20260502032003 44 55 0.0 0.0 0.00 0.00 0.00 45 1018.8
20260502031508 44 55 0.0 0.0 0.00 0.00 0.00 46 1018.9
20260502031004 44 55 0.0 0.0 0.00 0.00 0.00 46 1018.7
20260502030507 44 55 0.0 0.0 0.00 0.00 0.00 46 1018.7
20260502030014 44 55 0.0 0.0 0.00 0.00 0.00 45 1018.8
20260502025507 44 55 0.0 0.0 0.00 0.00 0.00 49 1018.8
20260502025010 44 55 0.0 0.0 0.00 0.00 0.00 47 1018.8
20260502024519 44 51 0.0 0.0 0.00 0.00 0.00 46 1018.8
20260502024009 45 40 0.0 0.0 0.00 0.00 0.00 42 1018.7
20260502023508 45 40 0.0 0.0 0.00 0.00 0.00 40 1018.8
20260502023022 46 40 0.0 0.0 0.00 0.00 0.00 39 1018.7
20260502022508 46 40 0.0 0.0 0.00 0.00 0.00 39 1018.7
20260502022004 47 40 0.0 0.0 0.00 0.00 0.00 38 1018.6
20260502021508 48 40 0.0 0.0 0.00 0.00 0.00 38 1018.6
20260502021003 48 40 0.0 0.0 0.00 0.00 0.00 37 1018.6
20260502020504 49 40 0.0 0.0 0.00 0.00 0.00 36 1018.6
20260502020015 50 40 0.0 0.0 0.00 0.00 0.00 35 1018.6
20260502015504 50 40 0.0 0.0 0.00 0.00 0.00 35 1018.6
20260502015007 51 40 0.0 0.0 0.00 0.00 0.00 34 1018.6
20260502014514 51 40 0.0 0.0 0.00 0.00 0.00 33 1018.6
20260502014007 52 34 0.0 0.0 0.00 0.00 0.00 32 1018.7
20260502013509 52 18 0.0 0.0 0.00 0.00 0.00 30 1018.7
20260502013022 53 18 0.0 0.0 0.00 0.00 0.00 30 1018.6
20260502012507 54 18 0.0 0.0 0.00 0.00 0.00 30 1018.5
20260502012014 54 18 0.0 0.0 0.00 0.00 0.00 30 1018.6
20260502011524 54 18 0.0 0.0 0.00 0.00 0.00 29 1018.6
20260502011003 55 26 0.0 0.0 0.00 0.00 0.00 29 1018.6
20260502010503 55 26 0.0 0.0 0.00 0.00 0.00 27 1018.5
20260502010017 55 26 0.0 0.0 0.00 0.00 0.00 27 1018.5
20260502005508 55 26 0.0 0.0 0.00 0.00 0.00 27 1018.7
20260502005004 56 26 0.0 1.7 0.00 0.00 0.00 28 1018.6
20260502004525 56 345 0.0 1.7 0.00 0.00 0.00 28 1018.6
20260502004008 56 328 0.0 3.5 0.00 0.00 0.00 29 1018.6
20260502003507 56 331 1.7 6.1 0.00 0.00 0.00 28 1018.6
20260502003022 56 316 0.0 6.1 0.00 0.00 0.00 28 1018.6
20260502002511 56 309 0.0 2.6 0.00 0.00 0.00 29 1018.6
20260502002010 56 60 0.9 2.6 0.00 0.00 0.00 27 1018.5
20260502001524 56 49 0.0 7.8 0.00 0.00 0.00 26 1018.6
20260502001011 57 349 0.9 7.8 0.00 0.00 0.00 28 1018.6
20260502000510 57 332 3.5 7.0 0.00 0.00 0.00 28 1018.6
20260502000006 57 333 0.0 4.3 0.00 0.00 0.00 27 1018.7
20260501235508 57 319 0.9 4.3 0.00 0.00 0.00 27 1018.7
20260501235007 57 281 0.0 3.5 0.00 0.00 0.00 27 1018.8
20260501234514 57 15 0.0 2.6 0.00 0.00 0.00 28 1018.9
20260501234008 57 11 0.0 2.6 0.00 0.00 0.00 28 1018.8
20260501233507 57 310 0.0 3.5 0.00 0.00 0.00 27 1018.8
20260501233018 57 66 0.0 7.0 0.00 0.00 0.00 28 1018.8
20260501232512 57 339 0.0 7.0 0.00 0.00 0.00 27 1018.8
20260501232010 58 336 2.6 7.0 0.00 0.00 0.00 28 1018.8
20260501231522 58 336 0.0 5.2 0.00 0.00 0.00 29 1018.8
20260501231007 58 66 0.0 7.0 0.00 0.00 0.00 30 1018.8
20260501230515 57 288 1.7 7.0 0.00 0.00 0.00 30 1018.8
20260501230028 57 303 1.7 4.3 0.00 0.00 0.00 29 1018.8
20260501225510 57 9 0.0 4.3 0.00 0.00 0.00 30 1018.9
20260501225008 57 63 0.0 3.5 0.00 0.00 0.00 29 1018.8
20260501224511 56 11 0.0 7.8 0.00 0.00 0.00 28 1018.8
20260501224006 57 311 3.5 7.8 0.00 0.00 0.00 28 1018.8
20260501223504 57 325 2.6 7.0 0.00 0.00 0.00 28 1018.8
20260501223014 57 346 1.7 6.1 0.00 0.00 0.00 30 1018.8
20260501222511 57 267 1.7 6.1 0.00 0.00 0.00 29 1018.8
20260501222010 57 293 1.7 5.2 0.00 0.00 0.00 31 1018.8
20260501221521 57 285 1.7 5.2 0.00 0.00 0.00 31 1018.9
20260501221014 56 313 0.0 7.0 0.00 0.00 0.00 1018.9
20260501220508 56 257 0.0 7.0 0.00 0.00 0.00 31 1019.1
20260501220034 57 310 2.6 7.0 0.00 0.00 0.00 31 1019.2
20260501215513 57 311 0.0 7.8 0.00 0.00 0.00 30 1019.1
20260501215009 56 5 1.7 7.8 0.00 0.00 0.00 32 1019.1
20260501214508 56 350 0.9 7.8 0.00 0.00 0.00 32 1019.2
20260501214004 57 303 2.6 7.8 0.00 0.00 0.00 32 1019.1
20260501213506 56 311 0.9 7.8 0.00 0.00 0.00 33 1019.1
20260501213016 56 322 1.7 7.8 0.00 0.00 0.00 33 1019.2
20260501212505 56 69 0.9 3.5 0.00 0.00 0.00 31 1019.3
20260501212005 55 40 0.9 7.0 0.00 0.00 0.00 30 1019.3
20260501211519 56 62 0.9 7.0 0.00 0.00 0.00 30 1019.4
20260501211008 57 352 0.9 7.0 0.00 0.00 0.00 32 1019.5
20260501210506 57 328 1.7 9.6 0.00 0.00 0.00 34 1019.4
20260501210022 56 331 2.6 9.6 0.00 0.00 0.00 31 1019.5
20260501205507 55 278 1.7 5.2 0.00 0.00 0.00 32 1019.6
20260501205007 55 319 0.9 5.2 0.00 0.00 0.00 35 1019.6
20260501204540 55 309 1.7 5.2 0.00 0.00 0.00 32 1019.7
20260501204009 56 343 1.7 5.2 0.00 0.00 0.00 33 1019.7
20260501203510 55 256 0.0 6.1 0.00 0.00 0.00 32 1019.8
20260501203015 55 331 3.5 6.1 0.00 0.00 0.00 34 1019.9
20260501202504 55 65 0.9 6.1 0.00 0.00 0.00 33 1020.0
20260501202008 56 298 0.9 7.0 0.00 0.00 0.00 38 1020.1
20260501201518 55 318 2.6 7.0 0.00 0.00 0.00 35 1020.2
20260501201010 55 308 2.6 7.0 0.00 0.00 0.00 35 1020.2
20260501200510 54 303 0.9 7.8 0.00 0.00 0.00 37 1020.2
20260501200026 53 232 0.9 7.8 0.00 0.00 0.00 35 1020.2
20260501195513 54 319 1.7 7.8 0.00 0.00 0.00 36 1020.3
20260501195009 54 321 2.6 7.8 0.00 0.00 0.00 36 1020.3
20260501194527 54 337 0.0 5.2 0.00 0.00 0.00 30 1020.3
20260501194010 53 38 1.7 7.8 0.00 0.00 0.00 38 1020.3
20260501193514 53 228 2.6 7.8 0.00 0.00 0.00 37 1020.2
20260501193028 54 325 0.9 4.3 0.00 0.00 0.00 36 1020.3
20260501192508 54 349 1.7 6.1 0.00 0.00 0.00 37 1020.4
20260501192007 53 344 2.6 6.1 0.00 0.00 0.00 35 1020.3
20260501191522 53 329 1.7 7.8 0.00 0.00 0.00 39 1020.4
20260501191011 53 292 1.7 20.9 0.00 0.00 0.00 39 1020.4
20260501190507 53 321 1.7 20.9 0.00 0.00 0.00 37 1020.3
20260501190022 51 294 0.9 5.2 0.00 0.00 0.00 42 1020.4
20260501185506 50 198 0.0 2.6 0.00 0.00 0.00 38 1020.4
20260501185006 51 107 0.9 3.5 0.00 0.00 0.00 38 1020.5
20260501184537 52 44 0.0 6.1 0.00 0.00 0.00 40 1020.5
20260501184007 52 346 1.7 6.1 0.00 0.00 0.00 38 1020.6
20260501183513 52 275 0.0 5.2 0.00 0.00 0.00 41 1020.6
20260501183035 52 275 2.6 7.8 0.00 0.00 0.00 42 1020.6
20260501182509 50 237 4.3 7.8 0.00 0.00 0.00 41 1020.6
20260501182016 51 145 0.9 3.5 0.00 0.00 0.00 38 1020.7
20260501181516 52 11 0.9 3.5 0.00 0.00 0.00 41 1020.7
20260501181007 52 238 0.9 5.2 0.00 0.00 0.00 42 1020.7
20260501180512 50 257 2.6 5.2 0.00 0.00 0.00 41 1020.7
20260501180020 50 85 1.7 3.5 0.00 0.00 0.00 43 1020.8
20260501175508 50 73 0.9 3.5 0.00 0.00 0.00 41 1021.0
20260501175008 50 310 0.0 6.1 0.00 0.00 0.00 39 1020.9
20260501174524 51 260 0.0 6.1 0.00 0.00 0.00 42 1021.0
20260501174008 50 255 3.5 6.1 0.00 0.00 0.00 43 1021.1
20260501173510 50 325 2.6 6.1 0.00 0.00 0.00 43 1021.2
20260501173025 50 51 0.9 3.5 0.00 0.00 0.00 42 1021.3
20260501172512 50 346 0.9 3.5 0.00 0.00 0.00 45 1021.3
20260501172010 49 104 0.0 3.5 0.00 0.00 0.00 44 1021.3